• In Österreich
  • Länderverzeichnis
  • Für 7 Tage
  • Wassertemperatur
  • Satellitenkarten
  • Wetterkarte
  • News
  • Widgets
  • user-avatar
    Anmelden

    Stündliche Wetter Bourgoin

    Heute, 22 Juli, Sonntag

    Zeit Temperatur Niederschläge Wind Luftdruck Luftfeuchtigkeit
    00:00 +18°C° 0 mm 1 m/S 734 mmHg 91%
    01:00 +16°C° 0 mm 1 m/S 734 mmHg 92%
    02:00 +16°C° 0 mm 1 m/S 734 mmHg 93%
    03:00 +16°C° 0 mm 1 m/S 734 mmHg 94%
    04:00 +16°C° 0 mm 1 m/S 734 mmHg 92%
    05:00 +18°C° 0 mm 1 m/S 734 mmHg 90%
    06:00 +19°C° 0 mm 1 m/S 735 mmHg 88%
    07:00 +20°C° 0 mm 2 m/S 735 mmHg 79%
    08:00 +21°C° 0 mm 3 m/S 735 mmHg 70%
    09:00 +24°C° 0 mm 3 m/S 734 mmHg 61%
    10:00 +25°C° 0 mm 4 m/S 734 mmHg 56%
    11:00 +26°C° 0 mm 4 m/S 734 mmHg 50%
    12:00 +28°C° 0 mm 4 m/S 734 mmHg 45%
    13:00 +28°C° 0 mm 4 m/S 734 mmHg 45%
    14:00 +28°C° 0 mm 4 m/S 734 mmHg 44%
    15:00 +28°C° 0 mm 5 m/S 733 mmHg 44%
    16:00 +27°C° 0 mm 4 m/S 733 mmHg 49%
    17:00 +26°C° 0 mm 4 m/S 734 mmHg 54%
    18:00 +25°C° 0 mm 4 m/S 734 mmHg 59%
    19:00 +22°C° 0 mm 3 m/S 734 mmHg 67%
    20:00 +21°C° 0 mm 3 m/S 735 mmHg 75%
    21:00 +19°C° 0 mm 2 m/S 735 mmHg 83%
    22:00 +18°C° 0 mm 2 m/S 735 mmHg 86%
    23:00 +18°C° 0 mm 2 m/S 735 mmHg 88%

    Morgen, 23 Juli, Montag

    Zeit Temperatur Niederschläge Wind Luftdruck Luftfeuchtigkeit
    00:00 +17°C° 0 mm 2 m/S 735 mmHg 91%
    01:00 +17°C° 0 mm 2 m/S 735 mmHg 92%
    02:00 +16°C° 0 mm 2 m/S 735 mmHg 93%
    03:00 +16°C° 0 mm 2 m/S 735 mmHg 94%
    04:00 +17°C° 0 mm 2 m/S 735 mmHg 90%
    05:00 +18°C° 0 mm 2 m/S 735 mmHg 87%
    06:00 +18°C° 0 mm 2 m/S 735 mmHg 84%
    07:00 +20°C° 0 mm 3 m/S 735 mmHg 75%
    08:00 +22°C° 0 mm 3 m/S 735 mmHg 67%
    09:00 +25°C° 0 mm 4 m/S 735 mmHg 59%
    10:00 +27°C° 0 mm 4 m/S 735 mmHg 54%
    11:00 +28°C° 0 mm 4 m/S 735 mmHg 50%
    12:00 +30°C° 0 mm 4 m/S 735 mmHg 45%
    13:00 +30°C° 0 mm 4 m/S 735 mmHg 44%
    14:00 +30°C° 0 mm 4 m/S 735 mmHg 44%
    15:00 +32°C° 0 mm 4 m/S 734 mmHg 44%
    16:00 +30°C° 0 mm 4 m/S 734 mmHg 49%
    17:00 +29°C° 0 mm 3 m/S 734 mmHg 54%
    18:00 +28°C° 0 mm 3 m/S 735 mmHg 59%
    19:00 +26°C° 0 mm 2 m/S 735 mmHg 66%
    20:00 +24°C° 0 mm 2 m/S 735 mmHg 74%
    21:00 +21°C° 0 mm 2 m/S 735 mmHg 81%
    22:00 +21°C° 0 mm 1 m/S 735 mmHg 84%
    23:00 +20°C° 0 mm 1 m/S 735 mmHg 86%

    übermorgen, 24 Juli, Dienstag

    Zeit Temperatur Niederschläge Wind Luftdruck Luftfeuchtigkeit
    00:00 +20°C° 0 mm 1 m/S 735 mmHg 89%
    01:00 +19°C° 0 mm 1 m/S 735 mmHg 90%
    02:00 +19°C° 0 mm 1 m/S 734 mmHg 91%
    03:00 +17°C° 0 mm 0 m/S 734 mmHg 92%
    04:00 +18°C° 0 mm 0 m/S 734 mmHg 88%
    05:00 +19°C° 0 mm 0 m/S 734 mmHg 85%
    06:00 +20°C° 0 mm 0 m/S 734 mmHg 81%
    07:00 +22°C° 0 mm 0 m/S 734 mmHg 73%
    08:00 +25°C° 0 mm 0 m/S 734 mmHg 65%
    09:00 +27°C° 0 mm 0 m/S 734 mmHg 56%
    10:00 +30°C° 0 mm 1 m/S 734 mmHg 51%
    11:00 +32°C° 0 mm 1 m/S 734 mmHg 46%
    12:00 +33°C° 0 mm 1 m/S 733 mmHg 41%
    13:00 +33°C° 0 mm 1 m/S 733 mmHg 40%
    14:00 +33°C° 0 mm 1 m/S 733 mmHg 39%
    15:00 +33°C° 0 mm 1 m/S 733 mmHg 38%
    16:00 +32°C° 0 mm 1 m/S 733 mmHg 43%
    17:00 +31°C° 0 mm 1 m/S 733 mmHg 48%
    18:00 +29°C° 0 mm 1 m/S 733 mmHg 53%
    19:00 +28°C° 0 mm 1 m/S 733 mmHg 57%
    20:00 +26°C° 0 mm 1 m/S 734 mmHg 60%
    21:00 +24°C° 0 mm 1 m/S 734 mmHg 64%
    22:00 +23°C° 0 mm 1 m/S 734 mmHg 67%
    23:00 +23°C° 0 mm 1 m/S 734 mmHg 69%

    25 Juli, Mittwoch

    Zeit Temperatur Niederschläge Wind Luftdruck Luftfeuchtigkeit
    00:00 +22°C° 0 mm 1 m/S 734 mmHg 72%
    01:00 +21°C° 0 mm 1 m/S 734 mmHg 74%
    02:00 +21°C° 0 mm 1 m/S 734 mmHg 76%
    03:00 +20°C° 0 mm 1 m/S 734 mmHg 77%
    04:00 +21°C° 0 mm 1 m/S 734 mmHg 75%
    05:00 +22°C° 0 mm 1 m/S 734 mmHg 72%
    06:00 +23°C° 0 mm 1 m/S 734 mmHg 70%
    07:00 +25°C° 0 mm 1 m/S 734 mmHg 64%
    08:00 +27°C° 0 mm 1 m/S 734 mmHg 57%
    09:00 +29°C° 0 mm 2 m/S 734 mmHg 51%
    10:00 +30°C° 0 mm 2 m/S 734 mmHg 47%
    11:00 +31°C° 0 mm 2 m/S 734 mmHg 43%
    12:00 +32°C° 0 mm 2 m/S 734 mmHg 39%
    13:00 +34°C° 0 mm 2 m/S 733 mmHg 38%
    14:00 +34°C° 0 mm 3 m/S 733 mmHg 37%
    15:00 +34°C° 0 mm 3 m/S 733 mmHg 36%
    16:00 +32°C° 0 mm 2 m/S 733 mmHg 41%
    17:00 +31°C° 0 mm 2 m/S 733 mmHg 47%
    18:00 +30°C° 0 mm 2 m/S 734 mmHg 52%
    19:00 +28°C° 0 mm 2 m/S 734 mmHg 60%
    20:00 +25°C° 0 mm 2 m/S 734 mmHg 67%
    21:00 +23°C° 0 mm 1 m/S 734 mmHg 74%
    22:00 +23°C° 0 mm 1 m/S 735 mmHg 77%
    23:00 +22°C° 0 mm 1 m/S 735 mmHg 80%

    26 Juli, Donnerstag

    Zeit Temperatur Niederschläge Wind Luftdruck Luftfeuchtigkeit
    00:00 +21°C° 0 mm 1 m/S 735 mmHg 84%
    01:00 +21°C° 0 mm 1 m/S 735 mmHg 85%
    02:00 +20°C° 0 mm 1 m/S 735 mmHg 87%
    03:00 +20°C° 0 mm 1 m/S 735 mmHg 88%
    04:00 +21°C° 0 mm 1 m/S 735 mmHg 85%
    05:00 +22°C° 0 mm 1 m/S 735 mmHg 82%
    06:00 +23°C° 0 mm 1 m/S 735 mmHg 79%
    07:00 +25°C° 0 mm 1 m/S 735 mmHg 71%
    08:00 +27°C° 0 mm 2 m/S 735 mmHg 64%
    09:00 +29°C° 0 mm 3 m/S 735 mmHg 56%
    10:00 +30°C° 0 mm 3 m/S 735 mmHg 52%
    11:00 +31°C° 0 mm 3 m/S 735 mmHg 48%
    12:00 +33°C° 0 mm 3 m/S 734 mmHg 45%
    13:00 +33°C° 0,1 mm 3 m/S 734 mmHg 44%
    14:00 +34°C° 0,1 mm 4 m/S 734 mmHg 44%
    15:00 +34°C° 0,1 mm 4 m/S 734 mmHg 44%
    16:00 +33°C° 0,1 mm 4 m/S 734 mmHg 49%
    17:00 +31°C° 0,1 mm 3 m/S 734 mmHg 54%
    18:00 +29°C° 0,1 mm 3 m/S 734 mmHg 59%
    19:00 +27°C° 0 mm 3 m/S 735 mmHg 66%
    20:00 +25°C° 0 mm 2 m/S 735 mmHg 74%
    21:00 +23°C° 0 mm 1 m/S 735 mmHg 81%
    22:00 +23°C° 0 mm 1 m/S 735 mmHg 83%
    23:00 +22°C° 0 mm 1 m/S 735 mmHg 86%

    27 Juli, Freitag

    Zeit Temperatur Niederschläge Wind Luftdruck Luftfeuchtigkeit
    00:00 +21°C° 0 mm 1 m/S 735 mmHg 88%
    01:00 +21°C° 0 mm 1 m/S 735 mmHg 89%
    02:00 +21°C° 0 mm 1 m/S 734 mmHg 90%
    03:00 +20°C° 0 mm 1 m/S 734 mmHg 91%
    04:00 +19°C° 0 mm 0 m/S 734 mmHg 87%
    05:00 +20°C° 0 mm 0 m/S 734 mmHg 84%
    06:00 +21°C° 0 mm 0 m/S 734 mmHg 81%
    07:00 +25°C° 0 mm 1 m/S 734 mmHg 72%
    08:00 +27°C° 0 mm 1 m/S 734 mmHg 64%
    09:00 +30°C° 0 mm 1 m/S 734 mmHg 56%
    10:00 +31°C° 0 mm 1 m/S 734 mmHg 51%
    11:00 +32°C° 0 mm 1 m/S 734 mmHg 46%
    12:00 +34°C° 0 mm 1 m/S 734 mmHg 41%
    13:00 +34°C° 0 mm 1 m/S 734 mmHg 40%
    14:00 +34°C° 0 mm 1 m/S 733 mmHg 39%
    15:00 +34°C° 0 mm 1 m/S 733 mmHg 38%
    16:00 +33°C° 0 mm 1 m/S 734 mmHg 43%
    17:00 +32°C° 0 mm 1 m/S 734 mmHg 47%
    18:00 +31°C° 0 mm 1 m/S 734 mmHg 51%
    19:00 +29°C° 0,2 mm 1 m/S 734 mmHg 57%
    20:00 +27°C° 0,2 mm 1 m/S 735 mmHg 63%
    21:00 +25°C° 0,2 mm 1 m/S 735 mmHg 68%
    22:00 +24°C° 0,4 mm 1 m/S 735 mmHg 73%
    23:00 +23°C° 0,4 mm 1 m/S 735 mmHg 77%
    Mehr zeigen